OPS 4682 DEB, 38453

Orbit data source: Space-Track

OPS 4682 DEB, 38453 is space debris in LEO originally from a launch on Sat, 03 Apr 1965 UTC launched from the Air Force Western Test Range (AFWTR). Debris objects in space refer to the collection of defunct objects orbiting the Earth. Examples of debris include non-operational satellites, rocket bodies, and fragments generated from explosions, collisions, or faulty payload assembly.

Loading next visibility...
Identifier
38453, 1965-027FJ
Orbit
LEO
Country
Flag of USUS
Related business
Manufacturer
Unknown
Mission
Spacecraft
Bus & Motor
Unknown
Mass
Unknown
Launch date (UTC)
1965-04-03 (61 years ago)
Launch vehicle
Unknown
Launch site
Air Force Western Test Range (AFWTR)
Object type
Payload
Rocket body
Debris
Shape & HBR
Unknown shape, 0.1 m
Radar Cross Section
Small (<0.1 m²)

Expand to show TLE details & history
Last TLE update: 18 hours ago

TLE from 18 hours ago
0 OPS 4682 DEB
1 38453U 65027FJ  26118.97359854  .00000486  00000-0  17094-2 0  9992
2 38453  90.2467   5.5098 0027635 357.0162   3.0788 12.94903521568626
Epoch: 2026-04-28T23:21Z
TLE epoch observation values (Epoch: 2026-04-28T23:21:58.913Z)
Latitude
-0.00005°
Longitude
158.0731°
Altitude
1,263.854 km
Speed
7.233 km/s
True Right ascension
00h 22m 02s
True Declination
0° 00' 00"
Sunlit
Object was in daylight at epoch
Visualization orbit readout
Latitude
Unknown
Longitude
Unknown
Altitude
Unknown
Speed
Unknown
Apparent Right ascension
Unknown
Apparent Declination
Unknown
Sunlit
N/A
Visualization observer readout
Local Sidereal Time
00:49:46
Azimuth
Unknown
Elevation
Unknown
Doppler factor
Unknown
Orbital elements
Apogee altitude
1,300.416 km
Perigee altitude
1,258.094 km
Semi-major axis
7,657.392 km
Eccentricity
0.00276
Inclination
90.2467°
RAAN
5.5098°
Arg. of periapsis
357.0162°
True anomaly
3.09587°
Mean anomaly
3.0788°
Eccentric anomaly
3.08733°
Mean motion
3.23908 °/min
Orbital period
111.14 mins
BSTAR
0.0017094
Loading maneuver chart data...
Computing Atmospheric mass density...
Loading historical data...
Loading historical data...
Loading historical data...
Loading historical data...
Loading historical data...
Loading historical data...
Loading historical data...

Documentation

Showing up to 5 results
|